FW0960 Weather Reports


time (UTC)temp
C
wind
direction
speed
KPH
gust
KPH
rain 1hr
cm
rain 24hr
cm
rain mn
cm
humidity
%
barometer
mb
20260906193518 25 188 0.0 0.0 0.00 0.00 0.00 77 1014.9
20260906192519 25 188 0.0 0.0 0.00 0.00 0.00 77 1015.0
20260906192017 25 188 0.0 0.0 0.00 0.00 0.00 79 1015.0
20260906191519 25 188 0.0 0.0 0.00 0.00 0.00 78 1015.1
20260906190523 24 188 0.0 0.0 0.00 0.00 0.00 79 1015.1
20260906190020 24 188 0.0 0.0 0.00 0.00 0.00 78 1015.1
20260906184512 24 188 0.0 0.0 0.00 0.00 0.00 78 1015.1
20260906183514 24 188 0.0 0.0 0.00 0.00 0.00 79 1015.2
20260906183017 24 188 0.0 0.0 0.00 0.00 0.00 78 1015.3
20260906182509 24 188 0.0 0.0 0.00 0.00 0.00 78 1015.3
20260906182010 24 188 0.0 0.0 0.00 0.00 0.00 79 1015.4
20260906181509 25 188 0.0 0.0 0.00 0.00 0.00 78 1015.4
20260906175511 24 188 0.0 0.0 0.00 0.00 0.00 79 1015.4
20260906175008 24 188 0.0 0.0 0.00 0.00 0.00 76 1015.4
20260906174002 24 188 0.0 0.0 0.00 0.00 0.00 77 1015.5
20260906173009 24 188 0.0 0.0 0.00 0.00 0.00 77 1015.4
20260906172510 24 188 0.0 0.0 0.00 0.00 0.00 78 1015.4
20260906171506 24 188 0.0 0.0 0.00 0.00 0.00 79 1015.5
20260906171008 24 190 0.0 0.0 0.00 0.00 0.00 78 1015.5
20260906170505 24 190 0.0 0.0 0.00 0.00 0.00 78 1015.4
20260906165502 24 190 0.0 0.0 0.00 0.00 0.00 79 1015.5
20260906165003 24 190 0.0 0.0 0.00 0.00 0.00 78 1015.5
20260906164000 25 190 0.0 0.0 0.00 0.00 0.00 81 1015.4
20260906163000 24 201 0.0 0.0 0.00 0.00 0.00 79 1015.3
20260906162457 24 254 0.0 0.0 0.00 0.00 0.00 79 1015.3
20260906161453 25 194 0.0 0.0 0.00 0.00 0.00 77 1015.3
20260906160949 25 194 0.0 0.0 0.00 0.00 0.00 77 1015.3
20260906160447 25 194 0.0 0.0 0.00 0.00 0.00 77 1015.4
20260906155440 24 194 0.0 0.0 0.00 0.00 0.00 78 1015.2
20260906154942 24 194 0.0 0.0 0.00 0.00 0.00 77 1015.2
20260906154440 24 194 0.0 0.0 0.00 0.00 0.00 78 1015.2
20260906153937 24 192 0.0 0.0 0.00 0.00 0.00 77 1015.2
20260906153442 24 192 0.0 0.0 0.00 0.00 0.00 78 1015.3
20260906152936 24 192 0.0 0.0 0.00 0.00 0.00 77 1015.2
20260906152434 24 188 0.0 0.0 0.00 0.00 0.00 76 1015.2
20260906151932 24 194 0.0 0.0 0.00 0.00 0.00 78 1015.3
20260906151435 23 194 0.0 0.0 0.00 0.00 0.00 77 1015.2
20260906145920 23 196 0.0 0.0 0.00 0.00 0.00 79 1015.2
20260906144917 23 197 0.0 0.0 0.00 0.00 0.00 77 1015.1
20260906144416 23 199 0.0 0.0 0.00 0.00 0.00 78 1015.1
20260906143917 23 196 0.0 0.0 0.00 0.00 0.00 80 1015.0
20260906143411 23 191 0.0 0.0 0.00 0.00 0.00 80 1015.1
20260906142415 23 194 0.0 0.0 0.00 0.00 0.00 82 1015.1
20260906141912 23 190 0.0 0.0 0.00 0.00 0.00 81 1014.9
20260906141404 23 190 0.0 0.0 0.00 0.00 0.00 82 1014.9
20260906140405 22 197 0.0 0.0 0.00 0.00 0.00 83 1014.8
20260906135907 22 194 0.0 0.0 0.00 0.00 0.00 82 1014.7
20260906135404 22 192 0.0 0.0 0.00 0.00 0.00 86 1014.7
20260906134910 22 192 0.0 0.0 0.00 0.00 0.00 85 1014.8
20260906134407 22 192 0.0 0.0 0.00 0.00 0.00 86 1014.7
20260906133904 22 193 0.0 0.0 0.00 0.00 0.00 87 1014.8
20260906132903 22 193 0.0 0.0 0.00 0.00 0.00 87 1014.7
20260906132406 22 193 0.0 0.0 0.00 0.00 0.00 88 1014.7
20260906131855 22 196 0.0 0.0 0.00 0.00 0.00 88 1014.7
20260906130844 21 192 0.0 0.0 0.00 0.00 0.00 87 1014.7
20260906130339 21 191 0.0 0.0 0.00 0.00 0.00 88 1014.5
20260906125848 21 192 0.0 0.0 0.00 0.00 0.00 89 1014.6
20260906125339 21 192 0.0 0.0 0.00 0.00 0.00 90 1014.5
20260906124335 21 192 0.0 0.0 0.00 0.00 0.00 90 1014.4
20260906123832 21 192 0.0 0.0 0.00 0.00 0.00 91 1014.5
20260906123334 21 192 0.0 0.0 0.00 0.00 0.00 92 1014.5
20260906122832 21 192 0.0 0.0 0.00 0.00 0.00 92 1014.4
20260906122333 21 192 0.0 0.0 0.00 0.00 0.00 93 1014.3
20260906121330 20 192 0.0 0.0 0.00 0.00 0.00 96 1014.2
20260906120832 20 192 0.0 0.0 0.00 0.00 0.00 97 1014.3
20260906120332 20 192 0.0 0.0 0.00 0.00 0.00 98 1014.2
20260906115834 19 192 0.0 0.0 0.00 0.00 0.00 98 1014.2
20260906115334 19 192 0.0 0.0 0.00 0.00 0.00 98 1014.1
20260906114837 18 192 0.0 0.0 0.00 0.00 0.00 97 1014.1
20260906114340 18 192 0.0 0.0 0.00 0.00 0.00 97 1014.1
20260906113339 18 192 0.0 0.0 0.00 0.00 0.00 97 1013.9
20260906112829 18 192 0.0 0.0 0.00 0.00 0.00 98 1013.9
20260906111828 18 192 0.0 0.0 0.00 0.00 0.00 97 1013.7
20260906111326 18 192 0.0 0.0 0.00 0.00 0.00 97 1013.6
20260906110842 18 192 0.0 0.0 0.00 0.00 0.00 97 1013.4
20260906110322 18 192 0.0 0.0 0.00 0.00 0.00 97 1013.4
20260906104817 18 192 0.0 0.0 0.00 0.00 0.00 97 1013.2
20260906104318 18 192 0.0 0.0 0.00 0.00 0.00 97 1013.2
20260906103307 18 192 0.0 0.0 0.00 0.00 0.00 97 1013.0
20260906102808 18 192 0.0 0.0 0.00 0.00 0.00 97 1012.9
20260906101803 18 192 0.0 0.0 0.00 0.00 0.00 97 1012.7
20260906101306 18 192 0.0 0.0 0.00 0.00 0.00 96 1012.7
20260906100802 18 192 0.0 0.0 0.00 0.00 0.00 96 1012.6
20260906100303 18 192 0.0 0.0 0.00 0.00 0.00 97 1012.7
20260906095806 18 192 0.0 0.0 0.00 0.00 0.00 97 1012.6
20260906095306 18 192 0.0 0.0 0.00 0.00 0.00 97 1012.7
20260906094803 18 192 0.0 0.0 0.00 0.00 0.00 97 1012.5
20260906094305 18 192 0.0 0.0 0.00 0.00 0.00 97 1012.5
20260906093800 18 192 0.0 0.0 0.00 0.00 0.00 96 1012.5
20260906093300 18 192 0.0 0.0 0.00 0.00 0.00 96 1012.5
20260906092252 18 192 0.0 0.0 0.00 0.00 0.00 96 1012.4
20260906091746 18 192 0.0 0.0 0.00 0.00 0.00 96 1012.3
20260906090747 18 192 0.0 0.0 0.00 0.00 0.00 96 1012.2
20260906090246 18 192 0.0 0.0 0.00 0.00 0.00 96 1012.3
20260906085801 18 192 0.0 0.0 0.00 0.00 0.00 96 1012.2
20260906084747 18 192 0.0 0.0 0.00 0.00 0.00 96 1012.1
20260906084244 18 192 0.0 0.0 0.00 0.00 0.00 96 1012.0
20260906083744 18 192 0.0 0.0 0.00 0.00 0.00 96 1012.0
20260906082734 18 192 0.0 0.0 0.00 0.00 0.00 96 1012.0
20260906082234 18 192 0.0 0.0 0.00 0.00 0.00 96 1012.0
20260906081741 18 192 0.0 0.0 0.00 0.00 0.00 96 1011.9
20260906080737 18 192 0.0 0.0 0.00 0.00 0.00 96 1011.9
20260906080234 18 192 0.0 0.0 0.00 0.00 0.00 96 1011.9
20260906075735 18 192 0.0 0.0 0.00 0.00 0.00 96 1012.0
20260906074732 18 192 0.0 0.0 0.00 0.00 0.00 96 1011.9
20260906074233 18 192 0.0 0.0 0.00 0.00 0.00 96 1012.0
20260906073238 18 192 0.0 0.0 0.00 0.00 0.00 96 1011.9
20260906072234 18 192 0.0 0.0 0.00 0.00 0.00 96 1011.8
20260906070732 18 192 0.0 0.0 0.00 0.00 0.00 96 1011.9
20260906070232 18 192 0.0 0.0 0.00 0.00 0.00 96 1011.9
20260906065231 19 192 0.0 0.0 0.00 0.00 0.00 96 1011.8
20260906064732 18 192 0.0 0.0 0.00 0.00 0.00 96 1011.8
20260906064230 19 192 0.0 0.0 0.00 0.00 0.00 96 1011.8
20260906063734 19 192 0.0 0.0 0.00 0.00 0.00 96 1011.8
20260906063231 19 192 0.0 0.0 0.00 0.00 0.00 96 1011.8
20260906062730 19 192 0.0 0.0 0.00 0.00 0.00 96 1011.9
20260906062230 19 192 0.0 0.0 0.00 0.00 0.00 96 1011.9
20260906061734 19 192 0.0 0.0 0.00 0.00 0.00 96 1011.9
20260906061230 19 192 0.0 0.0 0.00 0.00 0.00 96 1012.0
20260906060730 19 192 0.0 0.0 0.00 0.00 0.00 96 1012.0
20260906060233 19 192 0.0 0.0 0.00 0.00 0.00 96 1012.1
20260906055232 19 192 0.0 0.0 0.00 0.00 0.00 95 1012.1
20260906054729 19 192 0.0 0.0 0.00 0.00 0.00 95 1012.2
20260906054237 19 192 0.0 0.0 0.00 0.00 0.00 95 1012.1
20260906053733 19 192 0.0 0.0 0.00 0.00 0.00 95 1012.2
20260906053234 19 192 0.0 0.0 0.00 0.00 0.00 95 1012.2
20260906052732 19 192 0.0 0.0 0.00 0.00 0.00 95 1012.2
20260906051231 20 192 0.0 0.0 0.00 0.00 0.00 94 1012.3
20260906050731 20 192 0.0 0.0 0.00 0.00 0.00 94 1012.3
20260906050232 20 192 0.0 0.0 0.00 0.00 0.00 94 1012.4
20260906045231 20 192 0.0 0.0 0.00 0.00 0.00 94 1012.3
20260906044731 20 192 0.0 0.0 0.00 0.00 0.00 94 1012.4
20260906043730 20 192 0.0 0.0 0.00 0.00 0.00 94 1012.4
20260906042733 20 192 0.0 0.0 0.00 0.00 0.00 93 1012.4
20260906042236 20 192 0.0 0.0 0.00 0.00 0.00 93 1012.5
20260906041732 20 192 0.0 0.0 0.00 0.00 0.00 93 1012.4
20260906040732 20 192 0.0 0.0 0.00 0.00 0.00 93 1012.5
20260906040233 20 192 0.0 0.0 0.00 0.00 0.00 92 1012.5
20260906035732 20 192 0.0 0.0 0.00 0.00 0.00 93 1012.5
20260906035229 20 192 0.0 0.0 0.00 0.00 0.00 93 1012.5
20260906034731 20 192 0.0 0.0 0.00 0.00 0.00 92 1012.6
20260906034232 20 192 0.0 0.0 0.00 0.00 0.00 92 1012.6
20260906033234 20 192 0.0 0.0 0.00 0.00 0.00 93 1012.6
20260906031720 20 192 0.0 0.0 0.00 0.00 0.00 92 1012.5
20260906030713 20 192 0.0 0.0 0.00 0.00 0.00 92 1012.5
20260906030201 20 192 0.0 0.0 0.00 0.00 0.00 92 1012.4
20260906025203 21 192 0.0 0.0 0.00 0.00 0.00 92 1012.4
20260906024708 21 192 0.0 0.0 0.00 0.00 0.00 92 1012.5
20260906024205 21 192 0.0 0.0 0.00 0.00 0.00 92 1012.5
20260906023718 21 192 0.0 0.0 0.00 0.00 0.00 91 1012.5
20260906022707 21 192 0.0 0.0 0.00 0.00 0.00 91 1012.5
20260906022202 21 192 0.0 0.0 0.00 0.00 0.00 91 1012.5
20260906021709 21 192 0.0 0.0 0.00 0.00 0.00 90 1012.5
20260906021203 21 192 0.0 0.0 0.00 0.00 0.00 90 1012.4
20260906020702 21 192 0.0 0.0 0.00 0.00 0.00 90 1012.5
20260906020202 21 192 0.0 0.0 0.00 0.00 0.00 90 1012.6
20260906015201 21 192 0.0 0.0 0.00 0.00 0.00 90 1012.3
20260906014702 21 192 0.0 0.0 0.00 0.00 0.00 90 1012.2
20260906014202 21 192 0.0 0.0 0.00 0.00 0.00 90 1012.2
20260906013701 21 192 0.0 0.0 0.00 0.00 0.00 90 1012.1
20260906013159 21 192 0.0 0.0 0.00 0.00 0.00 90 1012.0
20260906012659 21 192 0.0 0.0 0.00 0.00 0.00 90 1012.0
20260906012158 21 192 0.0 0.0 0.00 0.00 0.00 90 1011.9
20260906011658 21 192 0.0 0.0 0.00 0.00 0.00 89 1011.9
20260906010651 22 192 0.0 0.0 0.00 0.00 0.00 89 1011.9
20260906010159 22 192 0.0 0.0 0.00 0.00 0.00 88 1011.9
20260906004645 22 192 0.0 0.0 0.00 0.00 0.00 87 1011.9
20260906003644 22 192 0.0 0.0 0.00 0.00 0.00 86 1011.8
20260906003143 22 192 0.0 0.0 0.00 0.00 0.00 86 1011.7
20260906002644 22 192 0.0 0.0 0.00 0.00 0.00 86 1011.7
20260906002143 23 192 0.0 0.0 0.00 0.00 0.00 85 1011.6
20260906001135 23 192 0.0 0.0 0.00 0.00 0.00 83 1011.2
20260906000641 23 192 0.0 0.0 0.00 0.00 0.00 83 1011.1
20260906000137 23 192 0.0 0.0 0.00 0.00 0.00 82 1011.1
20260905235700 23 192 0.0 0.0 0.00 0.00 0.00 83 1011.0
20260905235139 23 192 0.0 0.0 0.00 0.00 0.00 82 1011.1
20260905234740 23 192 0.0 0.0 0.00 0.00 0.00 81 1011.0
20260905233638 24 192 0.0 0.0 0.00 0.00 0.00 81 1011.0
20260905233139 24 192 0.0 0.0 0.00 0.00 0.00 79 1011.1
20260905232632 24 192 0.0 0.0 0.00 0.00 0.00 78 1011.0
20260905231633 24 192 0.0 0.0 0.00 0.00 0.00 78 1011.1
20260905231133 25 192 0.0 0.0 0.00 0.00 0.00 75 1011.1
20260905230635 25 192 0.0 0.0 0.00 0.00 0.00 74 1011.1
20260905230133 25 192 0.0 0.0 0.00 0.00 0.00 74 1011.2
20260905225130 25 192 0.0 0.0 0.00 0.00 0.00 74 1011.2
20260905224631 25 192 0.0 0.0 0.00 0.00 0.00 72 1011.1
20260905224140 25 192 0.0 0.0 0.00 0.00 0.00 73 1010.9
20260905222634 25 192 0.0 0.0 0.00 0.00 0.00 71 1010.9
20260905222137 25 192 0.0 0.0 0.00 0.00 0.00 71 1011.1
20260905221634 25 192 0.0 0.0 0.00 0.00 0.00 71 1011.1
20260905221132 25 192 0.0 0.0 0.00 0.00 0.00 70 1011.0
20260905220637 25 192 0.0 0.0 0.00 0.00 0.00 70 1011.1
20260905220138 25 192 0.0 0.0 0.00 0.00 0.00 71 1011.0
20260905215627 25 192 0.0 0.0 0.00 0.00 0.00 69 1011.0
20260905215131 25 193 0.0 0.0 0.00 0.00 0.00 70 1011.0
20260905214713 25 193 0.0 0.0 0.00 0.00 0.00 70 1011.0
20260905213623 25 189 0.0 0.0 0.00 0.00 0.00 71 1010.8
20260905212617 25 192 0.0 0.0 0.00 0.00 0.00 72 1010.8
20260905212117 25 192 0.0 0.0 0.00 0.00 0.00 71 1010.7
20260905211615 25 191 0.0 0.0 0.00 0.00 0.00 70 1010.5
20260905211111 25 190 0.0 0.0 0.00 0.00 0.00 74 1010.4
20260905210108 25 190 0.0 0.0 0.00 0.00 0.00 72 1010.2
20260905205105 25 195 0.0 0.0 0.00 0.00 0.00 74 1010.1
20260905204607 25 198 0.0 0.0 0.00 0.00 0.00 73 1010.1
20260905204106 25 196 0.0 0.0 0.00 0.00 0.00 74 1010.1
20260905203601 25 196 0.0 0.0 0.00 0.00 0.00 72 1010.1
20260905202559 25 196 0.0 0.0 0.00 0.00 0.00 74 1010.0
20260905202129 25 196 0.0 0.0 0.00 0.00 0.00 73 1010.3
20260905201555 25 196 0.0 0.0 0.00 0.00 0.00 72 1010.3
20260905201052 25 196 0.0 0.0 0.00 0.00 0.00 72 1010.3
20260905200558 26 199 0.0 0.0 0.00 0.00 0.00 71 1010.4
20260905200046 26 199 0.0 0.0 0.00 0.00 0.00 74 1010.4
20260905195547 26 201 0.0 0.0 0.00 0.00 0.00 73 1010.2
20260905195048 26 190 0.0 0.0 0.00 0.00 0.00 72 1010.4
20260905194043 26 198 0.0 0.0 0.00 0.00 0.00 72 1010.6
20260905193538 25 198 0.0 0.0 0.00 0.00 0.00 72 1010.9